Seeley, CA

2:24 AM PST on December 09, 2016 (GMT -0800)
El Centro Naval Air Facility

Weather History for KNJK - January, 2012

Change the Weather History Date:

Monday, January 2, 2012

  Actual Average Record
Temperature  
Mean Temperature 62 °F -  
Max Temperature 81 °F 66 °F 86 °F (2016)
Min Temperature 44 °F 45 °F 27 °F (2015)
Degree Days  
Heating Degree Days 2    
Growing Degree Days 12 (Base 50)    
Moisture  
Dew Point 25 °F    
Average Humidity 30    
Maximum Humidity 49    
Minimum Humidity 9    
Precipitation  
Precipitation 0.00 in - - ()
Sea Level Pressure  
Sea Level Pressure 30.26 in    
Wind  
Wind Speed - (North)    
Max Wind Speed -    
Max Gust Speed -    
Visibility 10 miles    
Events      
Averages and records for this station are not official NWS values.
T = Trace of Precipitation, MM = Missing Value Source: NWS Daily Summary

Daily Weather History Graph

Daily Weather History Graph

Search for Another Location

Airport or City:

Trip Planner

Search our weather history database for the weather conditions in past years. The results will help you decide how hot, cold, wet, or windy it might be!

Date:

Astronomy

Jan. 02, 2012 Rise Set
Actual Time 6:45 AM PST 4:47 PM PST
Civil Twilight 6:18 AM PST 5:15 PM PST
Nautical Twilight 5:47 AM PST 5:45 PM PST
Astronomical Twilight 5:17 AM PST 6:15 PM PST
Moon 11:59 AM PST (1/2) 12:51 AM PST (1/2)
Length of Visible Light 10h 56m
Length of Day
10h 02m
Waxing Gibbous, 65% of the Moon is Illuminated
Jan 2
Waxing Gibbous
Jan 8
Full
Jan 16
Last Quarter
Jan 22
New
Jan 30
First Quarter

Hourly Weather History & Observations

Time (PST) Temp. Dew Point Humidity Pressure Visibility Wind Dir Wind Speed Gust Speed Precip Events Conditions
12:56 AM 46.9 °F 23.0 °F 39% 30.25 in 10.0 mi North - - N/A   Clear
1:56 AM 48.9 °F 25.0 °F 39% 30.25 in 10.0 mi North - - N/A   Clear
2:56 AM 45.0 °F 23.0 °F 42% 30.25 in 10.0 mi North - - N/A   Clear
3:56 AM 46.0 °F 23.0 °F 40% 30.25 in 10.0 mi North - - N/A   Clear
4:56 AM 46.0 °F 26.1 °F 46% 30.26 in 10.0 mi North - - N/A   Clear
5:56 AM 45.0 °F 26.1 °F 48% 30.28 in 10.0 mi North - - N/A   Clear
6:56 AM 44.1 °F 26.1 °F 49% 30.29 in 10.0 mi North - - N/A   Clear
7:56 AM 48.0 °F 26.1 °F 42% 30.32 in 10.0 mi North - - N/A   Clear
8:56 AM 59.0 °F 28.0 °F 31% 30.33 in 10.0 mi North - - N/A   Clear
9:55 AM - - N/A% - - North - - N/A   Unknown
9:56 AM 66.9 °F 30.0 °F 25% 30.33 in 10.0 mi North - - N/A   Clear
10:56 AM 73.9 °F 19.9 °F 13% 30.30 in 10.0 mi North - - N/A   Clear
11:56 AM 77.0 °F 21.9 °F 13% 30.26 in 10.0 mi North - - N/A   Clear
12:56 PM 80.1 °F 17.1 °F 9% 30.23 in 10.0 mi North - - N/A   Clear
1:56 PM 80.1 °F 19.0 °F 10% 30.22 in 10.0 mi North - - N/A   Clear
2:56 PM 81.0 °F 19.9 °F 10% 30.22 in 10.0 mi North - - N/A   Clear
3:56 PM 79.0 °F 21.0 °F 12% 30.21 in 10.0 mi North - - N/A   Clear
4:56 PM 72.0 °F 37.0 °F 28% 30.21 in 10.0 mi North - - N/A   Clear
5:56 PM 63.0 °F 24.1 °F 23% 30.22 in 10.0 mi North - - N/A   Clear
6:56 PM 59.0 °F 27.0 °F 29% 30.25 in 10.0 mi North - - N/A   Clear
7:56 PM 55.9 °F 28.9 °F 36% 30.26 in 10.0 mi North - - N/A   Clear
8:56 PM 54.0 °F 28.0 °F 37% 30.26 in 10.0 mi North - - N/A   Clear
9:56 PM 54.0 °F 26.1 °F 34% 30.26 in 10.0 mi North - - N/A   Clear
10:56 PM 53.1 °F 28.9 °F 40% 30.25 in 10.0 mi North - - N/A   Clear
11:56 PM 54.0 °F 26.1 °F 34% 30.25 in 10.0 mi North - - N/A   Clear